Snowfall_Accumulation
nan nan nan nan nan nan nan nan nan nan nan nan nan nan nan nan nan 0.0 0.0 0.0 0.4 5.5 0.1 0.0 0.0 0.8 0.4 0.8 4.9 1.0 4.9 1.9 3.2 5.7 4.2 3.4 4.1 5.5 2.7 0.1 1.8 5.8 3.1 2.4 1.4 3.2 6.4 0.0 0.0 2.3 3.4 0.4 2.5 3.0
nan nan nan nan nan nan nan nan nan nan nan nan nan nan nan nan nan nan 0.1 0.0 0.0 1.5 0.9 0.0 0.0 0.0 0.0 0.1 1.8 0.8 2.7 1.1 1.7 3.3 3.8 4.0 3.3 2.0 2.2 2.2 0.2 12.1 4.4 6.2 0.9 1.1 0.0 0.0 0.0 0.0 0.0 0.7 1.2 3.1
nan nan nan nan nan nan nan nan nan nan nan nan nan nan nan nan nan nan 0.0 0.0 0.1 3.1 1.3 0.7 0.6 0.0 0.0 0.0 0.0 6.7 0.8 2.8 3.5 3.6 9.3 4.0 5.1 2.5 3.6 1.6 1.3 0.7 0.3 1.3 0.9 0.0 0.0 0.0 0.0 0.0 0.0 0.3 0.4 1.1
nan nan nan nan nan nan nan nan nan nan nan nan nan nan nan nan nan nan 0.0 0.0 0.1 2.6 10.6 1.2 0.0 0.2 0.0 0.0 0.0 0.1 0.5 1.1 4.5 5.8 12.3 9.6 7.9 2.8 3.8 3.8 3.6 1.4 0.4 0.3 0.2 0.1 0.1 0.0 0.0 0.0 0.1 0.1 0.2 0.2
nan nan nan nan nan nan nan nan nan nan nan nan nan nan nan nan nan nan 0.0 0.0 0.0 3.1 4.2 0.9 0.1 0.1 0.0 0.0 0.2 0.7 4.4 6.7 13.9 18.6 18.9 16.6 4.6 7.5 2.7 6.1 4.9 1.8 2.3 1.4 0.4 0.0 0.4 0.1 0.0 0.0 0.6 1.0 0.9 1.4
nan nan nan nan nan nan nan nan nan nan nan nan nan nan nan nan nan 0.0 1.3 0.3 0.0 0.6 7.1 3.9 0.6 0.8 0.1 0.0 1.9 3.5 3.9 8.6 8.9 9.5 13.8 12.0 6.7 9.4 12.5 6.3 2.2 1.2 0.7 0.8 2.4 0.1 0.2 0.0 0.0 0.2 1.5 1.0 1.3 1.2
nan nan nan nan nan nan nan nan nan nan nan nan nan nan nan nan 0.0 0.6 1.5 0.2 nan 0.5 4.4 10.5 2.7 1.1 1.3 1.4 1.7 4.9 3.4 7.0 8.2 10.2 8.0 7.6 6.6 6.7 5.4 6.3 3.5 3.2 1.6 0.6 0.1 1.3 0.8 0.2 1.8 0.4 0.8 0.7 1.0 1.6
nan nan nan nan nan nan nan nan nan nan nan nan nan nan nan nan nan 0.4 0.0 nan nan 1.9 1.7 13.2 5.1 2.0 0.4 2.7 5.3 2.2 6.6 3.9 4.3 6.7 6.0 6.6 4.9 5.0 12.8 7.7 6.3 4.7 2.6 1.7 1.0 1.2 1.7 1.1 0.7 0.9 0.8 0.9 1.3 2.3
nan nan nan nan nan nan nan nan nan nan nan nan nan nan 0.0 0.2 1.2 0.8 nan nan 0.0 2.6 9.0 6.9 5.7 8.5 0.5 2.1 3.8 5.8 4.7 8.2 3.8 8.0 6.7 2.0 5.2 13.7 15.4 9.3 6.6 6.0 6.3 5.7 2.2 2.2 2.3 2.3 2.7 2.4 2.2 2.4 1.8 4.2
nan nan nan nan nan nan nan nan nan nan nan nan 0.0 2.8 9.7 2.5 nan nan 0.9 4.1 4.8 3.8 3.6 7.1 0.7 5.1 2.1 1.9 3.2 5.5 3.2 6.6 13.8 9.3 2.4 6.6 19.7 8.2 11.7 12.0 9.8 9.4 9.0 6.6 4.5 6.5 3.7 3.7 4.0 4.6 5.6 5.0 4.6 5.8
nan nan nan nan nan nan nan nan nan nan nan 0.2 4.0 6.2 2.2 nan 1.1 3.7 15.0 16.0 7.0 12.6 1.6 2.6 2.7 4.7 1.3 6.4 5.3 3.2 8.8 6.1 15.0 5.2 3.7 9.8 12.3 18.0 12.7 11.3 10.7 9.8 9.2 10.7 7.6 7.7 5.7 6.1 6.8 4.9 4.8 5.0 4.9 3.9
nan nan nan nan nan nan nan nan nan 0.1 1.9 0.7 0.9 0.5 0.7 3.8 11.6 16.1 17.7 9.1 6.0 4.2 1.5 3.1 3.8 3.4 2.3 2.1 8.1 8.3 12.2 11.7 17.2 3.7 8.2 12.0 16.3 13.4 9.8 12.4 11.9 10.7 8.7 10.8 7.0 7.1 6.7 5.9 5.1 4.9 4.9 5.0 4.9 5.3
nan nan nan nan nan nan nan nan nan nan nan 0.7 5.1 15.7 17.2 18.5 41.3 19.6 17.2 8.7 6.6 2.3 2.8 4.3 5.8 2.0 1.0 1.7 7.7 8.9 13.9 11.9 1.6 12.1 8.3 12.3 13.3 10.1 10.4 8.3 9.9 10.2 8.5 7.2 7.4 7.5 6.1 6.4 4.3 3.6 5.2 6.4 3.9 2.5
nan nan nan nan nan nan nan nan nan 0.3 0.9 12.8 24.9 52.3 19.8 20.0 6.5 6.0 5.1 4.9 3.9 4.3 2.9 2.2 2.0 4.9 1.5 7.2 3.7 13.0 3.3 3.9 13.3 11.2 11.1 9.2 7.9 6.6 5.8 7.0 3.8 6.5 5.4 3.8 5.8 3.5 3.6 1.8 2.2 2.1 1.3 1.0 1.0 0.9
nan nan nan nan nan nan nan nan nan 0.5 2.2 29.2 19.2 34.9 19.9 6.0 7.4 5.8 4.7 3.9 1.6 1.0 2.0 1.8 2.1 2.8 5.1 9.4 4.4 4.2 11.2 11.2 3.2 5.8 5.4 5.9 3.5 3.0 2.2 2.1 2.1 1.3 1.5 1.0 0.7 0.7 0.4 0.6 0.7 0.9 1.0 1.0 0.7 0.6
nan nan 0.0 nan nan nan nan nan 0.3 1.9 21.9 28.0 21.3 19.0 2.6 5.7 8.0 5.4 4.2 2.4 0.7 0.5 0.7 2.5 8.5 13.2 10.0 8.0 10.3 11.0 13.9 8.8 6.0 4.3 3.8 1.8 0.5 0.3 0.2 0.1 0.3 0.4 0.2 0.4 0.3 0.2 0.3 0.3 0.4 0.8 0.8 0.8 0.8 1.0
nan 0.1 nan nan nan nan nan 1.8 9.8 28.2 32.1 32.8 26.6 3.5 4.2 4.9 6.0 2.4 0.3 0.0 0.0 2.5 6.0 5.8 15.9 10.5 4.1 12.0 10.4 5.0 10.0 4.5 2.2 2.5 1.0 0.1 0.0 0.0 0.0 0.0 0.0 0.0 0.0 0.1 0.2 0.0 0.0 0.1 0.2 0.2 0.4 0.9 0.9 1.0
0.0 0.0 nan nan nan nan 1.1 6.0 29.3 37.1 40.5 16.3 11.6 6.3 2.3 2.1 1.9 1.1 0.0 0.0 0.8 1.5 2.5 7.7 4.5 13.2 14.5 13.0 7.1 7.2 5.0 3.9 1.2 0.4 0.2 0.1 0.0 0.0 0.0 0.0 0.0 0.0 0.1 0.1 0.1 0.1 0.1 0.2 0.2 0.7 0.7 1.1 1.2 1.2
0.1 0.1 nan nan 0.2 5.5 31.4 36.8 13.6 32.3 23.5 6.5 4.7 2.4 1.2 0.8 0.6 0.6 0.2 0.0 0.1 0.2 4.0 8.3 14.8 17.6 7.0 8.3 7.5 5.9 3.2 0.7 0.2 0.1 0.1 0.0 0.0 0.0 0.0 0.1 0.1 0.1 0.2 0.3 0.1 0.3 0.3 0.2 0.5 1.3 1.4 0.9 1.2 1.4
nan nan nan nan nan 21.2 40.5 35.6 11.0 13.2 15.8 9.3 5.1 6.9 4.6 2.6 0.4 0.4 0.3 0.3 0.6 4.1 11.7 19.8 8.9 5.8 5.4 5.9 4.8 2.7 1.1 0.0 0.0 0.1 0.0 0.0 0.0 0.1 0.2 0.2 0.0 0.1 0.1 0.1 0.4 nan 0.4 0.4 0.4 0.3 0.6 1.0 1.8 1.7
nan nan nan 0.5 10.9 13.9 23.3 24.1 18.9 16.1 11.3 10.2 10.5 6.8 11.8 5.0 6.8 7.4 6.9 0.9 8.1 15.8 14.8 8.3 6.6 5.7 4.6 3.6 0.8 0.2 0.1 0.0 0.0 0.0 0.0 0.3 0.0 0.2 0.4 0.6 0.7 0.0 0.1 0.2 0.7 0.9 0.4 0.6 0.7 0.7 6.2 1.2 0.7 1.0
0.3 nan 4.6 3.2 27.5 29.9 22.7 13.3 15.6 10.7 12.6 11.9 12.8 9.6 17.9 21.2 19.2 18.1 5.2 17.4 18.6 8.5 6.7 5.9 4.9 3.0 2.4 1.2 0.5 0.1 0.0 0.0 0.0 0.0 nan 0.0 0.4 0.6 0.7 0.9 1.6 4.7 3.8 4.3 2.7 2.0 1.1 0.9 1.6 1.9 1.2 1.4 1.3 1.3
nan 1.3 11.4 15.3 28.2 26.4 34.7 9.7 15.5 16.9 18.4 22.0 18.2 18.4 21.9 22.1 16.0 6.5 19.9 10.2 8.3 5.9 4.9 3.8 2.9 2.0 1.3 0.5 0.2 0.1 0.0 0.1 0.2 0.2 0.1 0.2 0.1 0.5 1.1 0.8 1.0 7.1 7.1 2.1 0.9 2.5 4.1 nan 1.3 2.1 1.7 1.3 1.9 2.6
nan 22.7 32.4 27.8 22.2 25.7 9.3 18.1 7.1 10.8 14.1 15.5 19.6 18.5 17.8 15.4 10.9 20.7 16.8 9.9 6.0 4.1 3.4 2.1 1.9 1.9 2.0 2.5 1.2 0.6 0.4 0.2 0.5 0.6 0.4 0.9 1.7 0.7 0.3 0.7 0.7 0.7 1.7 1.7 2.8 3.5 2.9 3.6 nan 3.4 3.8 5.1 5.0 5.7
40.3 52.5 24.7 41.0 15.7 16.9 11.1 10.2 15.6 10.0 12.6 13.1 14.1 16.1 15.4 12.1 17.7 18.5 11.5 9.9 6.6 5.1 2.9 1.7 1.8 2.2 4.3 4.0 0.7 0.8 0.4 0.7 1.8 2.1 0.9 1.0 2.6 2.3 2.6 1.0 0.2 0.8 2.4 8.1 5.4 4.6 4.6 5.3 4.9 5.6 5.1 6.0 6.7 7.5
47.5 21.2 33.7 10.1 14.3 8.0 6.6 9.2 8.9 10.5 8.7 12.7 12.1 10.2 13.5 12.3 15.8 17.4 7.8 8.8 8.0 5.8 6.6 6.5 5.0 3.6 2.0 1.3 1.9 1.9 1.1 0.9 1.6 2.8 1.4 1.5 2.3 6.5 7.4 3.9 3.8 2.3 1.4 6.0 13.1 10.5 7.5 6.7 8.4 8.0 7.2 5.5 nan 9.5
34.4 18.1 7.4 0.9 2.0 1.7 2.9 3.0 2.7 5.7 11.2 10.6 9.0 8.4 11.0 18.4 13.1 4.4 3.1 3.0 5.4 5.1 4.8 3.3 2.5 2.4 2.4 2.1 1.3 1.7 1.6 2.5 3.4 3.4 1.6 1.6 1.6 2.3 6.9 13.2 10.8 1.8 3.3 7.8 9.2 9.7 11.2 8.3 8.9 8.7 8.6 7.1 6.5 7.1
4.2 4.0 5.8 7.9 3.8 4.2 3.8 3.6 5.5 7.6 6.5 3.0 4.3 11.1 11.3 7.8 5.9 3.3 3.5 3.6 6.4 7.5 9.0 6.9 5.1 5.2 7.1 6.5 6.3 6.2 7.9 7.3 7.8 5.5 4.1 2.6 3.3 6.0 6.9 6.4 6.9 nan 9.7 9.1 13.2 11.1 9.8 9.5 9.9 8.9 9.4 9.5 7.8 6.3
7.8 4.4 3.3 9.7 8.6 9.6 10.7 8.5 6.1 2.9 0.5 2.4 7.0 5.7 4.5 1.9 5.5 5.0 3.0 5.0 7.7 9.6 9.0 8.8 10.6 10.1 10.8 9.4 8.9 9.0 10.5 9.5 10.8 7.3 4.3 4.1 5.0 7.9 9.3 9.4 10.8 9.9 9.4 9.4 nan nan 11.6 12.6 11.6 9.9 7.7 8.0 5.9 7.8
7.1 8.3 7.5 9.4 8.4 7.8 8.4 4.7 8.2 7.3 3.0 3.6 4.0 4.8 3.5 4.7 5.1 3.8 5.5 6.9 8.6 11.7 13.5 16.0 15.6 17.3 15.1 12.4 13.2 11.6 12.9 12.7 10.8 11.2 12.1 9.1 7.9 6.7 9.7 12.4 11.2 9.7 9.9 10.4 9.6 8.6 nan 7.3 nan 8.1 10.3 10.4 9.3 10.4
6.7 10.6 9.6 9.4 9.9 11.9 10.2 6.7 9.5 5.0 8.0 10.8 9.5 9.9 8.1 8.4 4.9 4.2 4.8 5.8 8.3 13.5 15.6 16.9 17.1 18.1 14.8 12.8 14.6 13.5 11.9 10.6 11.5 11.2 11.9 12.4 11.8 12.1 13.0 14.0 12.9 12.3 11.0 12.0 11.7 9.9 10.5 10.2 9.8 10.7 10.2 10.9 9.7 9.3
8.6 12.4 11.5 9.7 13.9 15.2 11.9 14.4 15.2 13.4 13.1 13.0 12.0 12.8 10.3 9.4 6.6 5.4 5.3 10.9 11.6 11.5 nan 14.6 12.2 11.1 11.9 12.0 10.8 10.1 nan 9.7 9.7 9.7 10.9 11.5 10.2 9.3 11.8 12.4 11.9 12.6 13.0 12.6 12.8 12.6 12.9 13.9 13.1 11.5 10.9 11.8 11.1 9.7
16.8 15.1 16.7 12.8 19.0 16.6 14.8 15.0 9.1 17.4 13.6 12.8 9.8 9.6 10.6 6.4 5.8 5.2 4.6 9.2 9.3 9.2 9.9 10.5 10.9 12.1 10.3 10.1 9.4 9.2 nan 10.8 11.9 nan nan nan nan nan 11.6 10.7 10.9 11.1 10.8 11.7 12.6 12.3 13.0 13.6 14.0 10.6 11.1 11.9 12.6 11.7
Water_Equivalent
nan nan nan nan nan nan nan nan nan nan nan nan nan nan nan nan nan 0.00 0.00 0.00 0.10 1.04 0.03 0.00 0.00 0.16 0.10 0.16 0.62 0.21 0.73 0.35 0.45 0.66 0.57 0.45 0.49 0.58 0.25 0.01 0.15 0.49 0.31 0.32 0.21 0.45 0.79 0.00 0.00 0.14 0.26 0.04 0.23 0.28
nan nan nan nan nan nan nan nan nan nan nan nan nan nan nan nan nan nan 0.03 0.00 0.00 0.37 0.22 0.00 0.00 0.00 0.01 0.02 0.37 0.15 0.53 0.24 0.30 0.48 0.64 0.52 0.43 0.33 0.24 0.23 0.02 1.05 0.45 0.53 0.09 0.09 0.00 0.00 0.00 0.00 0.00 0.06 0.11 0.29
nan nan nan nan nan nan nan nan nan nan nan nan nan nan nan nan nan nan 0.00 0.00 0.04 0.74 0.34 0.17 0.17 0.00 0.00 0.00 0.00 0.94 0.17 0.68 0.59 0.66 1.24 0.56 0.66 0.46 0.40 0.19 0.13 0.09 0.05 0.14 0.11 0.00 0.00 0.00 0.00 0.00 0.00 0.03 0.05 0.12
nan nan nan nan nan nan nan nan nan nan nan nan nan nan nan nan nan nan 0.00 0.00 0.02 0.64 1.49 0.21 0.00 0.04 0.00 0.00 0.01 0.02 0.10 0.21 0.85 0.91 1.73 1.54 1.07 0.38 0.46 0.42 0.40 0.15 0.05 0.03 0.02 0.01 0.01 0.00 0.01 0.01 0.01 0.01 0.03 0.03
nan nan nan nan nan nan nan nan nan nan nan nan nan nan nan nan nan nan 0.00 0.00 0.00 0.58 0.67 0.15 0.02 0.02 0.00 0.00 0.05 0.17 0.80 1.01 2.09 2.84 2.86 2.15 0.61 0.93 0.33 0.69 0.51 0.19 0.19 0.13 0.05 0.00 0.04 0.02 0.01 0.00 0.06 0.10 0.10 0.16
nan nan nan nan nan nan nan nan nan nan nan nan nan nan nan nan nan 0.00 0.31 0.10 0.00 0.21 1.14 0.69 0.15 0.17 0.03 0.01 0.40 0.73 0.85 1.55 1.49 1.40 1.89 1.63 0.92 1.18 1.48 0.68 0.26 0.16 0.10 0.08 0.21 0.02 0.02 0.01 0.01 0.03 0.15 0.11 0.16 0.14
nan nan nan nan nan nan nan nan nan nan nan nan nan nan nan nan 0.00 0.19 0.34 0.05 nan 0.15 0.77 2.33 0.48 0.25 0.31 0.30 0.44 0.95 0.69 1.10 1.17 1.43 1.11 0.91 0.79 0.90 0.76 0.66 0.40 0.42 0.23 0.09 0.02 0.12 0.10 0.03 0.19 0.05 0.09 0.08 0.12 0.20
nan nan nan nan nan nan nan nan nan nan nan nan nan nan nan nan nan 0.12 0.00 nan nan 0.46 0.35 2.55 1.00 0.33 0.08 0.40 0.68 0.46 0.92 0.59 0.64 0.89 0.85 0.85 0.62 0.66 1.41 0.83 0.75 0.58 0.34 0.22 0.15 0.14 0.18 0.13 0.09 0.12 0.11 0.12 0.16 0.26
nan nan nan nan nan nan nan nan nan nan nan nan nan nan 0.00 0.05 0.28 0.20 nan nan 0.01 0.48 1.62 1.31 1.02 1.94 0.10 0.30 0.55 0.80 0.70 1.04 0.50 1.03 0.79 0.27 0.60 1.51 1.43 0.91 0.72 0.70 0.64 0.61 0.27 0.27 0.28 0.25 0.30 0.29 0.26 0.28 0.21 0.47
nan nan nan nan nan nan nan nan nan nan nan nan 0.00 0.75 2.26 0.54 nan nan 0.22 0.74 1.00 0.72 0.77 1.15 0.08 0.69 0.25 0.23 0.41 0.66 0.47 0.95 2.29 0.90 0.30 0.74 1.70 0.87 1.27 1.32 1.11 1.10 1.09 0.79 0.47 0.66 0.41 0.41 0.43 0.50 0.62 0.57 0.52 0.65
nan nan nan nan nan nan nan nan nan nan nan 0.05 0.87 1.32 0.52 nan 0.24 0.66 3.11 2.85 1.36 2.04 0.29 0.32 0.31 0.50 0.19 0.92 0.68 0.42 1.48 1.05 2.31 0.68 0.45 1.33 1.12 1.67 1.29 1.19 1.19 1.12 1.06 1.25 0.87 0.87 0.63 0.66 0.71 0.52 0.53 0.56 0.56 0.45
nan nan nan nan nan nan nan nan nan 0.03 0.69 0.18 0.19 0.12 0.16 0.90 2.32 2.77 2.81 1.73 1.00 0.73 0.21 0.37 0.47 0.44 0.30 0.27 1.08 1.24 1.80 1.87 2.17 0.50 1.20 1.34 1.49 1.29 0.94 1.20 1.19 1.10 0.90 1.11 0.75 0.73 0.70 0.62 0.54 0.51 0.52 0.53 0.52 0.59
nan nan nan nan nan nan nan nan nan nan nan 0.18 1.23 3.93 3.39 3.51 7.16 2.95 2.26 1.73 1.49 0.39 0.50 0.68 0.97 0.27 0.18 0.27 1.25 1.31 2.06 1.75 0.26 1.94 0.75 1.06 1.18 0.95 0.98 0.77 0.91 0.99 0.83 0.71 0.72 0.76 0.62 0.63 0.45 0.38 0.53 0.69 0.43 0.27
nan nan nan nan nan nan nan nan nan 0.09 0.25 2.87 5.50 9.91 3.30 3.18 1.02 0.86 0.57 0.66 0.51 0.65 0.41 0.29 0.38 0.72 0.23 1.13 0.57 2.09 0.43 0.52 1.81 1.38 0.94 0.77 0.66 0.55 0.50 0.62 0.33 0.55 0.48 0.33 0.53 0.33 0.34 0.17 0.20 0.20 0.13 0.10 0.10 0.09
nan nan nan nan nan nan nan nan nan 0.12 0.46 6.14 4.14 5.72 3.12 0.83 1.11 0.92 1.04 0.74 0.35 0.16 0.26 0.29 0.42 0.33 1.13 1.65 0.66 0.79 1.50 1.59 0.43 0.62 0.49 0.58 0.29 0.25 0.18 0.17 0.18 0.11 0.12 0.08 0.06 0.06 0.04 0.05 0.06 0.08 0.09 0.09 0.07 0.06
nan nan 0.00 nan nan nan nan nan 0.06 0.47 5.70 6.43 4.40 3.28 0.40 1.11 1.49 1.05 1.16 0.69 0.15 0.09 0.15 0.43 1.60 2.10 1.67 1.25 1.58 1.55 1.91 1.03 0.71 0.61 0.40 0.20 0.04 0.03 0.02 0.01 0.02 0.03 0.02 0.03 0.02 0.02 0.02 0.03 0.04 0.07 0.07 0.07 0.08 0.10
nan 0.03 nan nan nan nan nan 0.59 3.04 8.04 7.86 7.35 5.06 0.54 0.63 0.92 0.95 0.35 0.04 0.00 0.01 0.37 1.17 1.16 2.25 1.52 0.92 1.66 1.28 0.77 1.45 0.56 0.35 0.31 0.13 0.01 0.01 0.00 0.00 0.01 0.01 0.00 0.01 0.02 0.02 0.00 0.00 0.01 0.02 0.02 0.04 0.08 0.09 0.10
0.01 0.00 nan nan nan nan 0.34 1.93 7.55 8.81 7.82 3.27 1.73 1.01 0.31 0.28 0.25 0.13 0.00 0.00 0.17 0.35 0.57 1.85 0.89 2.07 1.83 1.45 0.74 0.70 0.52 0.49 0.21 0.09 0.05 0.01 0.00 0.00 0.00 0.00 0.00 0.01 0.02 0.02 0.02 0.02 0.03 0.04 0.03 0.08 0.08 0.15 0.14 0.14
0.02 0.02 nan nan 0.04 1.80 7.82 8.71 4.23 5.68 4.21 1.22 0.78 0.50 0.27 0.13 0.07 0.07 0.03 0.00 0.05 0.06 1.03 1.66 2.41 2.47 0.66 0.75 0.80 0.76 0.46 0.14 0.02 0.01 0.01 0.00 0.00 0.00 0.00 0.02 0.02 0.02 0.04 0.04 0.02 0.06 0.05 0.03 0.05 0.17 0.18 0.12 0.15 0.18
nan nan nan nan nan 5.13 7.74 6.70 2.68 2.28 2.42 1.43 1.05 1.21 0.74 0.40 0.07 0.07 0.03 0.07 0.21 1.28 2.37 3.08 0.89 0.36 0.34 0.42 0.43 0.27 0.12 0.01 0.00 0.00 0.00 0.00 0.00 0.03 0.04 0.06 0.00 0.01 0.00 0.02 0.07 nan 0.08 0.05 0.06 0.03 0.06 0.11 0.21 0.18
nan nan nan 0.10 3.45 3.75 5.08 4.02 3.08 2.60 1.84 1.52 1.83 1.19 1.53 1.18 1.27 1.58 1.60 0.29 1.81 2.77 1.94 0.66 0.46 0.39 0.35 0.30 0.08 0.01 0.01 0.00 0.00 0.00 0.00 0.06 0.00 0.07 0.10 0.15 0.18 0.00 0.01 0.02 0.09 0.10 0.04 0.06 0.07 0.11 1.16 0.15 0.07 0.11
0.08 nan 1.38 0.95 6.17 5.91 3.73 2.23 2.39 1.61 1.78 1.82 1.97 1.66 2.83 3.40 3.03 2.76 1.16 3.13 2.69 1.03 0.53 0.44 0.41 0.27 0.21 0.09 0.05 0.02 0.01 0.01 0.00 0.00 nan 0.00 0.08 0.12 0.13 0.18 0.26 0.72 0.63 0.74 0.44 0.27 0.15 0.12 0.21 0.25 0.17 0.21 0.17 0.17
nan 0.38 2.73 4.16 4.81 4.29 5.52 1.63 2.06 2.32 2.41 3.16 2.72 2.55 3.19 3.30 2.27 1.32 2.89 1.57 1.02 0.55 0.47 0.39 0.27 0.16 0.14 0.05 0.02 0.02 0.01 0.02 0.04 0.03 0.01 0.02 0.02 0.11 0.23 0.15 0.19 1.07 1.03 0.32 0.18 0.37 0.57 nan 0.18 0.29 0.26 0.20 0.25 0.34
nan 4.76 5.66 4.30 3.29 3.59 1.26 2.40 0.91 1.34 1.80 1.97 2.59 2.27 2.28 2.04 1.66 2.88 2.08 1.08 0.68 0.48 0.39 0.23 0.27 0.24 0.24 0.29 0.19 0.10 0.08 0.04 0.07 0.10 0.08 0.16 0.27 0.10 0.03 0.10 0.09 0.12 0.25 0.27 0.42 0.50 0.44 0.51 nan 0.51 0.51 0.63 0.62 0.70
7.42 9.07 3.86 6.17 2.10 2.07 1.25 1.08 1.91 1.12 1.45 1.49 1.61 1.89 1.87 1.40 2.24 2.34 1.22 1.06 0.73 0.59 0.42 0.28 0.30 0.36 0.75 0.72 0.12 0.13 0.05 0.12 0.29 0.31 0.16 0.16 0.37 0.33 0.41 0.18 0.04 0.11 0.34 1.26 0.70 0.59 0.63 0.74 0.69 0.74 0.67 0.73 0.78 0.84
7.58 2.95 4.95 1.24 1.81 0.92 0.73 1.01 0.94 1.15 0.94 1.41 1.33 1.06 1.51 1.43 1.89 2.16 0.74 0.98 0.96 0.82 1.03 1.02 0.85 0.55 0.27 0.20 0.29 0.30 0.20 0.16 0.25 0.41 0.25 0.27 0.34 0.96 1.15 0.55 0.54 0.35 0.24 0.81 1.76 1.36 0.93 0.87 1.06 0.98 0.91 0.74 nan 1.31
4.89 2.32 0.87 0.11 0.20 0.15 0.29 0.32 0.28 0.63 1.24 1.15 0.97 0.87 1.26 2.17 1.45 0.38 0.29 0.32 0.54 0.65 0.59 0.53 0.45 0.43 0.39 0.33 0.22 0.29 0.29 0.48 0.55 0.54 0.27 0.29 0.30 0.36 1.02 1.77 1.33 0.27 0.47 1.19 1.36 1.29 1.39 1.02 1.11 1.11 1.13 1.06 0.97 0.96
0.47 0.42 0.61 0.92 0.38 0.42 0.39 0.35 0.58 0.82 0.70 0.30 0.45 1.20 1.27 0.82 0.61 0.35 0.36 0.40 0.72 0.84 0.95 0.73 0.65 0.70 0.88 0.84 0.84 0.80 0.98 0.90 0.90 0.71 0.57 0.39 0.48 0.93 1.04 1.00 1.07 nan 1.47 1.35 1.77 1.55 1.41 1.33 1.38 1.25 1.22 1.27 1.12 0.92
0.84 0.49 0.36 1.06 0.89 1.03 1.19 0.95 0.65 0.29 0.04 0.24 0.79 0.60 0.43 0.16 0.64 0.56 0.33 0.57 0.92 1.02 0.95 0.92 1.17 1.34 1.31 1.10 1.03 1.11 1.26 1.20 1.27 0.78 0.43 0.46 0.57 0.95 1.32 1.37 1.59 1.50 1.44 1.41 nan nan 1.61 1.78 1.67 1.47 1.18 1.15 0.93 1.25
0.74 0.94 0.79 0.97 0.90 0.82 0.90 0.45 0.90 0.77 0.28 0.38 0.41 0.45 0.30 0.44 0.57 0.49 0.59 0.68 0.83 1.24 1.57 1.95 1.92 2.26 1.88 1.46 1.52 1.23 1.46 1.58 1.39 1.33 1.35 1.01 0.98 0.89 1.33 1.60 1.52 1.43 1.49 1.52 1.39 1.39 nan 1.30 nan 1.35 1.42 1.25 1.21 1.21
0.70 1.21 0.97 0.93 1.02 1.32 1.02 0.57 0.92 0.41 0.76 1.15 0.99 1.08 0.85 0.89 0.47 0.40 0.41 0.55 0.82 1.50 1.81 2.07 2.13 2.30 1.72 1.44 1.71 1.54 1.31 1.19 1.34 1.31 1.36 1.39 1.36 1.46 1.62 1.76 1.71 1.68 1.57 1.55 1.46 1.33 1.40 1.28 1.23 1.32 1.11 1.18 1.07 1.02
0.93 1.31 1.21 0.94 1.54 1.74 1.20 1.54 1.64 1.44 1.41 1.42 1.33 1.40 1.09 1.00 0.63 0.50 0.44 1.13 1.21 1.15 nan 1.60 1.26 1.16 1.32 1.30 1.14 1.12 nan 1.04 1.06 1.07 1.18 1.27 1.19 1.14 1.43 1.55 1.66 1.56 1.57 1.53 1.50 1.42 1.45 1.59 1.45 1.34 1.16 1.37 1.26 1.01
1.91 1.64 1.85 1.27 2.23 1.82 1.62 1.76 0.88 2.20 1.51 1.39 1.00 0.97 1.13 0.63 0.51 0.49 0.38 0.85 0.86 0.83 0.94 1.07 1.12 1.29 1.04 1.00 0.94 0.92 nan 1.15 1.29 nan nan nan nan nan 1.41 1.21 1.24 1.22 1.14 1.28 1.40 1.35 1.39 1.48 1.55 1.20 1.25 1.36 1.36 1.23
SL_Ratio
nan nan nan nan nan nan nan nan nan nan nan nan nan nan nan nan nan nan nan nan 4.0 5.3 4.9 nan nan 4.8 4.3 4.9 8.0 4.6 6.7 5.5 7.1 8.5 7.4 7.5 8.5 9.6 10.7 11.0 11.5 11.8 9.8 7.5 6.9 7.0 8.0 nan 5.0 16.2 12.7 11.0 11.0 11.0
nan nan nan nan nan nan nan nan nan nan nan nan nan nan nan nan nan nan 3.6 nan nan 4.2 4.1 nan nan nan 3.0 3.5 4.9 5.3 5.1 4.8 5.7 6.9 6.0 7.8 7.8 6.2 9.3 9.4 7.6 11.5 9.8 11.7 9.5 11.9 nan nan 0.0 10.0 10.0 11.2 11.2 10.6
nan nan nan nan nan nan nan nan nan nan nan nan nan nan nan nan nan nan 5.0 nan 3.6 4.1 3.9 4.2 3.6 nan nan nan 3.3 7.2 4.6 4.1 5.9 5.4 7.5 7.1 7.7 5.4 8.9 8.6 10.2 8.0 6.6 8.8 8.2 5.7 nan nan nan nan nan 10.2 9.3 8.7
nan nan nan nan nan nan nan nan nan nan nan nan nan nan nan nan nan nan 2.5 nan 2.9 4.2 7.1 5.6 nan 3.7 nan nan 2.7 3.3 4.5 5.3 5.2 6.3 7.1 6.2 7.4 7.5 8.3 9.0 9.2 8.9 7.7 8.0 7.5 5.9 6.2 4.0 4.6 5.0 9.6 8.8 8.5 6.7
nan nan nan nan nan nan nan nan nan nan nan nan nan nan nan nan nan nan nan nan nan 5.3 6.3 5.5 3.5 3.4 nan 3.3 4.1 4.2 5.4 6.6 6.6 6.6 6.6 7.7 7.5 8.1 8.3 8.7 9.5 9.1 11.6 10.6 8.4 5.0 10.8 5.8 3.7 5.0 9.8 9.6 8.6 8.9
nan nan nan nan nan nan nan nan nan nan nan nan nan nan nan nan nan nan 4.3 2.7 nan 2.8 6.2 5.6 3.8 4.8 3.0 2.8 4.7 4.8 4.6 5.5 6.0 6.8 7.3 7.4 7.3 8.0 8.5 9.2 8.6 7.5 6.6 10.2 11.6 5.7 7.4 5.7 4.7 7.1 9.8 9.0 8.5 8.6
nan nan nan nan nan nan nan nan nan nan nan nan nan nan nan nan nan 3.3 4.4 3.0 nan 3.2 5.8 4.5 5.7 4.2 4.3 4.5 3.9 5.2 4.9 6.4 7.0 7.1 7.2 8.4 8.5 7.5 7.1 9.4 8.7 7.7 6.9 6.3 5.4 11.1 7.6 5.0 9.6 8.4 8.7 8.0 8.3 8.1
nan nan nan nan nan nan nan nan nan nan nan nan nan nan nan nan nan 3.7 nan nan nan 4.2 4.9 5.2 5.1 6.0 5.0 6.7 7.8 4.7 7.1 6.6 6.7 7.6 7.0 7.8 7.8 7.5 9.1 9.2 8.4 8.1 7.5 7.5 7.0 8.6 9.5 8.1 7.5 7.5 7.2 7.3 8.2 8.7
nan nan nan nan nan nan nan nan nan nan nan nan nan nan 5.0 3.4 4.1 3.8 nan nan 2.9 5.4 5.5 5.2 5.6 4.4 5.2 6.9 6.9 7.2 6.7 8.0 7.7 7.7 8.5 7.4 8.7 9.0 10.8 10.2 9.1 8.6 9.9 9.3 8.2 8.2 7.9 8.9 8.8 8.4 8.5 8.5 8.9 9.1
nan nan nan nan nan nan nan nan nan nan nan nan 3.3 3.7 4.3 4.6 nan nan 3.9 5.6 4.8 5.3 4.7 6.2 8.5 7.4 8.4 8.2 7.8 8.4 6.9 7.0 6.0 10.4 8.1 8.9 11.6 9.4 9.3 9.1 8.8 8.5 8.2 8.3 9.6 9.8 9.0 9.2 9.3 9.2 9.1 8.7 8.9 8.9
nan nan nan nan nan nan nan nan nan nan nan 5.5 4.6 4.7 4.3 nan 4.5 5.6 4.8 5.6 5.2 6.2 5.4 8.0 8.8 9.4 7.1 7.0 7.8 7.7 6.0 5.9 6.5 7.7 8.4 7.4 10.9 10.8 9.9 9.5 9.0 8.8 8.6 8.6 8.7 8.9 9.0 9.3 9.5 9.4 9.2 8.9 8.8 8.8
nan nan nan nan nan nan nan nan nan 2.5 2.8 4.0 5.1 4.2 4.3 4.3 5.0 5.8 6.3 5.3 6.0 5.8 7.0 8.3 8.1 7.7 7.6 7.9 7.5 6.7 6.8 6.3 8.0 7.3 6.9 9.0 10.9 10.4 10.4 10.3 10.0 9.7 9.7 9.7 9.4 9.9 9.6 9.5 9.4 9.5 9.5 9.5 9.3 8.9
nan nan nan nan nan nan nan nan nan nan nan 4.0 4.2 4.0 5.1 5.3 5.8 6.6 7.6 5.1 4.4 5.8 5.5 6.3 6.0 7.2 5.6 6.3 6.1 6.8 6.7 6.8 6.1 6.2 11.0 11.5 11.3 10.6 10.6 10.8 10.9 10.3 10.3 10.2 10.3 9.8 9.9 10.1 9.6 9.7 9.8 9.3 9.1 9.3
nan nan nan nan nan nan nan nan nan 3.3 3.4 4.5 4.5 5.3 6.0 6.3 6.4 6.9 8.9 7.4 7.8 6.5 7.1 7.6 5.2 6.8 6.6 6.3 6.6 6.2 7.6 7.6 7.3 8.1 11.8 12.0 12.0 12.0 11.6 11.2 11.6 11.8 11.4 11.4 10.9 10.6 10.7 10.8 11.0 10.4 10.2 10.0 9.9 10.2
nan nan nan nan nan nan nan nan nan 4.5 4.7 4.8 4.6 6.1 6.4 7.2 6.6 6.3 4.5 5.2 4.7 6.2 7.7 6.0 5.0 8.6 4.5 5.7 6.7 5.4 7.5 7.1 7.5 9.4 10.9 10.3 12.0 12.1 12.3 12.2 11.5 11.7 12.1 12.3 11.6 11.6 11.5 11.0 10.7 11.1 10.8 10.4 10.2 10.0
nan nan 3.3 nan nan nan nan nan 5.2 4.0 3.8 4.4 4.8 5.8 6.6 5.1 5.4 5.1 3.6 3.5 4.2 5.5 4.5 5.8 5.3 6.3 6.0 6.4 6.5 7.1 7.3 8.6 8.5 7.1 9.3 9.0 12.1 12.1 9.9 8.4 10.8 12.6 12.4 11.8 11.5 11.3 11.4 11.4 11.4 11.5 10.8 11.0 10.6 10.5
nan 2.8 nan nan nan nan nan 3.1 3.2 3.5 4.1 4.5 5.3 6.5 6.6 5.3 6.3 6.9 8.5 10.0 5.0 6.8 5.1 5.0 7.1 6.9 4.5 7.2 8.1 6.4 6.9 8.0 6.3 8.0 7.5 5.9 6.4 6.4 5.0 3.7 6.1 5.0 5.3 5.1 8.4 5.0 11.3 11.4 11.0 11.3 11.7 11.5 10.7 10.1
4.2 5.0 nan nan nan nan 3.3 3.1 3.9 4.2 5.2 5.0 6.7 6.3 7.5 7.8 7.4 8.9 8.7 7.5 4.9 4.4 4.4 4.2 5.1 6.4 7.9 9.0 9.6 10.4 9.7 7.9 6.0 5.2 3.9 4.0 10.0 15.0 nan 4.6 6.7 4.2 4.3 5.4 4.8 4.6 4.2 4.6 6.4 9.2 8.4 7.9 8.5 8.5
4.0 4.9 nan nan 5.2 3.1 4.0 4.2 3.2 5.7 5.6 5.4 6.0 4.7 4.2 6.6 8.6 8.6 8.2 8.6 2.6 2.9 3.9 5.0 6.2 7.1 10.7 11.0 9.4 7.7 7.1 4.7 8.7 13.9 13.5 13.3 10.0 nan 3.8 3.7 4.0 4.3 5.2 6.3 5.3 5.0 6.1 9.4 10.1 7.8 7.7 7.2 8.3 7.9
nan nan nan nan nan 4.1 5.2 5.3 4.1 5.8 6.5 6.5 4.9 5.7 6.3 6.4 5.6 6.8 7.4 3.8 3.1 3.2 4.9 6.4 10.0 16.2 16.1 14.3 11.0 10.1 9.1 6.7 15.0 15.0 15.6 14.0 15.0 4.1 4.4 3.8 15.0 4.3 13.6 6.7 6.1 nan 4.8 7.2 6.7 7.9 9.3 9.2 8.8 9.2
nan nan nan 5.3 3.2 3.7 4.6 6.0 6.1 6.2 6.1 6.7 5.7 5.7 7.7 4.3 5.3 4.7 4.3 3.1 4.5 5.7 7.6 12.7 14.5 14.7 13.2 11.9 11.1 11.6 12.1 13.3 12.0 15.0 14.0 4.5 13.3 3.1 3.7 3.8 4.1 3.6 6.3 9.2 8.5 9.1 8.9 10.8 10.5 6.5 5.3 8.5 9.7 9.3
3.4 nan 3.3 3.3 4.5 5.1 6.1 6.0 6.5 6.6 7.1 6.5 6.5 5.8 6.3 6.2 6.4 6.5 4.5 5.6 6.9 8.3 12.5 13.4 12.0 11.4 11.6 13.0 10.1 8.0 4.7 6.7 6.3 6.7 nan 10.0 5.3 5.0 5.8 5.0 6.1 6.5 6.1 5.7 6.1 7.4 7.8 7.6 7.7 7.5 6.9 6.9 7.5 7.6
nan 3.4 4.2 3.7 5.9 6.1 6.3 6.0 7.5 7.3 7.6 7.0 6.7 7.2 6.9 6.7 7.0 5.0 6.9 6.5 8.1 10.8 10.4 9.6 10.9 12.6 9.4 11.4 9.5 9.4 4.7 6.2 6.1 5.6 7.9 7.6 6.2 4.7 4.8 5.7 5.2 6.6 6.9 6.4 5.1 6.9 7.2 nan 6.9 7.4 6.7 6.7 7.9 7.7
nan 4.8 5.7 6.5 6.7 7.2 7.4 7.5 7.8 8.1 7.8 7.9 7.6 8.1 7.8 7.6 6.6 7.2 8.1 9.1 8.9 8.5 8.7 9.4 7.1 7.8 8.2 8.5 6.5 6.1 5.6 4.8 6.8 6.4 5.2 5.7 6.3 7.1 7.7 6.8 7.3 6.2 6.9 6.5 6.7 6.9 6.7 7.0 nan 6.7 7.3 8.1 8.1 8.2
5.4 5.8 6.4 6.6 7.4 8.2 8.9 9.4 8.2 8.9 8.7 8.7 8.8 8.5 8.2 8.6 7.9 7.9 9.4 9.3 9.0 8.6 6.9 6.0 6.1 6.1 5.7 5.6 5.7 5.9 6.9 5.6 6.0 6.7 5.7 5.9 7.0 6.9 6.2 5.6 5.9 6.7 7.0 6.4 7.7 7.9 7.3 7.3 7.1 7.5 7.7 8.2 8.5 9.0
6.3 7.2 6.8 8.1 7.9 8.7 9.1 9.1 9.5 9.1 9.2 9.1 9.2 9.6 9.0 8.6 8.4 8.1 10.5 9.0 8.3 7.1 6.5 6.4 5.9 6.6 7.4 6.5 6.7 6.4 5.7 5.4 6.3 6.7 5.6 5.7 6.8 6.8 6.4 7.1 7.0 6.5 5.9 7.5 7.4 7.7 8.0 7.7 7.9 8.1 7.9 7.4 nan 7.3
7.0 7.8 8.5 8.1 9.9 11.0 10.0 9.5 9.4 9.1 9.0 9.2 9.2 9.6 8.7 8.5 9.0 11.6 10.6 9.3 10.1 7.8 8.0 6.2 5.4 5.6 6.1 6.3 5.8 5.7 5.4 5.2 6.2 6.3 5.9 5.5 5.4 6.4 6.7 7.5 8.1 6.5 7.1 6.5 6.8 7.5 8.0 8.1 8.0 7.8 7.6 6.7 6.7 7.4
8.8 9.5 9.5 8.7 9.8 10.1 9.8 10.1 9.5 9.2 9.3 10.0 9.6 9.2 8.9 9.6 9.6 9.3 9.7 9.0 9.0 8.9 9.4 9.5 8.0 7.3 8.0 7.8 7.5 7.8 8.1 8.1 8.8 7.7 7.1 6.8 6.9 6.5 6.6 6.4 6.4 nan 6.6 6.8 7.5 7.1 7.0 7.1 7.2 7.1 7.7 7.5 7.0 6.8
9.2 9.1 9.3 9.1 9.7 9.3 9.0 9.0 9.3 10.1 12.4 10.0 8.9 9.5 10.3 11.7 8.7 8.9 8.9 8.7 8.4 9.4 9.5 9.5 9.0 7.6 8.2 8.6 8.6 8.1 8.3 7.9 8.6 9.4 9.9 9.1 8.9 8.3 7.0 6.8 6.8 6.6 6.5 6.6 nan nan 7.2 7.1 6.9 6.8 6.6 7.0 6.4 6.2
9.6 8.8 9.6 9.7 9.3 9.6 9.4 10.5 9.1 9.4 10.4 9.6 9.9 10.6 11.6 10.6 9.0 7.7 9.3 10.1 10.3 9.4 8.6 8.2 8.1 7.6 8.1 8.5 8.7 9.4 8.8 8.0 7.8 8.4 9.0 9.0 8.1 7.5 7.3 7.8 7.4 6.8 6.6 6.8 6.9 6.2 nan 5.6 nan 6.0 7.3 8.3 7.6 8.6
9.5 8.7 9.9 10.1 9.8 9.0 9.9 11.8 10.2 12.1 10.5 9.4 9.7 9.2 9.6 9.4 10.4 10.5 11.5 10.5 10.0 9.0 8.6 8.2 8.0 7.9 8.6 8.9 8.6 8.8 9.1 8.9 8.6 8.6 8.8 8.9 8.7 8.3 8.1 7.9 7.5 7.3 7.0 7.7 8.0 7.5 7.5 8.0 8.0 8.1 9.2 9.2 9.1 9.2
9.3 9.5 9.4 10.4 9.0 8.7 9.9 9.3 9.2 9.3 9.3 9.1 9.0 9.2 9.4 9.5 10.5 10.7 12.1 9.7 9.6 10.0 nan 9.1 9.7 9.6 9.0 9.2 9.4 9.1 nan 9.3 9.1 9.1 9.3 9.1 8.6 8.1 8.3 8.0 7.2 8.1 8.3 8.2 8.6 8.8 8.9 8.7 9.1 8.5 9.4 8.6 8.8 9.6
8.8 9.2 9.0 10.0 8.5 9.1 9.1 8.5 10.3 7.9 9.0 9.2 9.8 9.8 9.4 10.3 11.4 10.8 12.3 10.8 10.8 11.1 10.5 9.8 9.7 9.4 10.0 10.0 10.0 9.9 nan 9.4 9.2 nan nan nan nan nan 8.2 8.9 8.8 9.1 9.4 9.1 9.0 9.1 9.3 9.2 9.0 8.8 8.9 8.8 9.3 9.5